This is the latest recevied weather packets stored in our database for station/object K4PAR-1. If no packets are shown the sender has not sent any weather packets the latest 10 day(s).
| Time | Temp. | Humidity | Pressure | Rain* | Wind** | Luminosity | Snow |
|---|---|---|---|---|---|---|---|
| 1788463829 | 36.67° C | - | - | 0 mm | 0 m/s | - | - |
| 1788463807 | 36.11° C | - | - | 0 mm | 0.45 m/s, 245° | - | - |
| 1788463565 | 36.67° C | - | - | 0 mm | 0 m/s | - | - |
| 1788463322 | 37.78° C | - | - | 0 mm | 0.45 m/s, 352° | - | - |
| 1788463079 | 36.67° C | - | - | 0 mm | 0 m/s | - | - |
| 1788462837 | 36.67° C | - | - | 0 mm | 0.89 m/s, 288° | - | - |
| 1788462594 | 36.11° C | - | - | 0 mm | 0 m/s | - | - |
| 1788462351 | 33.89° C | - | - | 0 mm | 0.89 m/s, 256° | - | - |
| 1788462109 | 33.89° C | - | - | 0 mm | 2.24 m/s, 96° | - | - |
| 1788461936 | 34.44° C | - | - | 0 mm | 1.79 m/s, 243° | - | - |
| 1788461866 | 34.44° C | - | - | 0 mm | 1.79 m/s, 243° | - | - |
| 1788461381 | 35° C | - | - | 0 mm | 2.24 m/s, 252° | - | - |
| 1788461138 | 34.44° C | - | - | 0 mm | 0.89 m/s, 207° | - | - |
| 1788461046 | 35.56° C | - | - | 0 mm | 1.79 m/s, 359° | - | - |
| 1788461044 | 36.11° C | - | - | 0 mm | 0.45 m/s, 134° | - | - |
| 1788460919 | 35.56° C | - | - | 0 mm | 1.79 m/s, 359° | - | - |
| 1788460653 | 36.11° C | - | - | 0 mm | 0.45 m/s, 134° | - | - |
| 1788460410 | 36.11° C | - | - | 0 mm | 0 m/s | - | - |
| 1788460167 | 34.44° C | - | - | 0 mm | 0 m/s | - | - |
| 1788459925 | 34.44° C | - | - | 0 mm | 2.24 m/s, 69° | - | - |
| 1788459682 | 36.11° C | - | - | 0 mm | 0.89 m/s, 208° | - | - |
| 1788459230 | 35.56° C | - | - | 0 mm | 0.45 m/s, 308° | - | - |
| 1788459224 | 35.56° C | - | - | 0 mm | 1.79 m/s, 233° | - | - |
| 1788459197 | 35.56° C | - | - | 0 mm | 0.45 m/s, 308° | - | - |
| 1788458954 | 35.56° C | - | - | 0 mm | 1.79 m/s, 233° | - | - |
* Rain latest hour (hover to see other rain measurements)
** Current wind speed in m/s (hover to see current wind gust speed)